Terminal Aerodrome Forecast
Issued by NWS

Home | Current Version | Previous Version | Text Only | Print | Product List | Glossary On
Versions: 1 2 3 4 5 6 7 8 9 10 11 12
739
FTPA31 PHFO 131720
TAFHLI
TAF
PHLI 131720Z 1318/1418 28005KT P6SM SCT020 BKN030
     FM131900 10010KT P6SM FEW020 SCT040
     FM140700 28007KT P6SM FEW020 SCT040
     FM141700 07010KT P6SM FEW020 SCT040=

USA.gov is the U.S. government's official web portal to all federal, state and local government web resources and services.